Regional Weather Roundup
Issued by NWS Midland/Odessa, TX

Skip options and go directly to product.
Home | Oldest Version | Previous Version | Current Version | All | Text Only | Save Text | Print | Product List | Glossary On

Skip product version selection by date and time.   
632
ASUS44 KMAF 271310
RWRMAF
MIDLAND AREA WEATHER ROUNDUP
NATIONAL WEATHER SERVICE MIDLAND TX
800 AM CDT WED JUL 27 2016

...IN SOUTHWEST TEXAS AND SOUTHEAST NEW MEXICO...

CITY           SKY/WX    TMP DP  RH WIND       PRES   REMARKS
ALPINE         CLOUDY    68  64  86 CALM      30.20R
ANDREWS        FAIR      72  68  87 CALM      30.09R
ARTESIA        CLEAR     73  63  68 CALM      30.09R
BIG SPRING     SUNNY     75  69  80 CALM      30.08S
CARLSBAD       CLEAR     72  66  81 S3        30.07R
DRYDEN           N/A     73  71  93 CALM      30.02R
FORT STOCKTON  SUNNY     72  65  78 S7        30.06R
GUAD PASS      CLOUDY    70  56  61 E9        30.22R
HOBBS          SUNNY     68  68 100 CALM      30.12R
MARFA          CLOUDY    70  61  73 CALM      30.18R
MIDLAND AIRPK  SUNNY     75  69  84 CALM      30.07S
MIDLAND INTL   SUNNY     75  70  84 CALM      30.06R
ODESSA         SUNNY     74  69  85 NE5       30.08R
PECOS          CLOUDY    74  67  80 E6        30.05R
PRESIDIO       FAIR      79  63  57 CALM      30.03R
SEMINOLE       SUNNY     70  64  80 CALM      30.11R
SNYDER           N/A     71  65  81 CALM      30.05R
WINK           SUNNY     72  68  87 E6        30.04R
$$
...OTHER STATIONS IN TEXAS...

CITY           SKY/WX    TMP DP  RH WIND       PRES   REMARKS
ABILENE        SUNNY     77  69  76 S5        30.01S
AMARILLO       MOSUNNY   70  66  87 SE5       30.11R
AUSTIN         TSTM      73  72  96 SW12      29.99R FOG
BROWNSVILLE    MOSUNNY   82  78  88 SE8       29.93R
CORPUS CHRISTI CLOUDY    83  79  88 S7        29.93R
DALLAS FTW     CLOUDY    82  74  76 S7        29.95R
DEL RIO        PTSUNNY   75  73  93 E5        29.96R
EL PASO        CLOUDY    75  64  68 NE3       30.11S
HOUSTON INT    PTSUNNY   80  75  84 N3        29.96R
LUBBOCK        MOSUNNY   72  62  71 N5        30.08R
SAN ANGELO     SUNNY     73  67  81 S5        30.03R
SAN ANTONIO    CLOUDY    78  73  84 S8        29.98R
WACO           SUNNY     78  72  81 S8        29.97R
WICHITA FALLS  NOT AVBL
$$
...OTHER LOCATIONS IN NEW MEXICO...

CITY           SKY/WX    TMP DP  RH WIND       PRES   REMARKS
ALAMAGORDO     CLOUDY    68  66  94 N7        30.15R
ALBUQUERQUE    PTCLDY    71  60  68 NE3       30.24R
CANNON AFB     SUNNY     72  64  75 W5        30.14R
CLOVIS         SUNNY     68  61  77 CALM      30.14S
HOLLOMAN AFB   CLOUDY    67  66  97 N7        30.12R
ROSWELL        CLEAR     70  63  78 N5        30.10R
RUIDOSO          N/A     61  54  77 NW5       30.33R
SANTA FE       CLEAR     62  55  77 N5        30.29S
TRUTH OR CONSE PTCLDY    71  57  61 NE3       30.17R
TUCUMCARI      SUNNY     71  63  75 W6        30.10S
$$

USA.gov is the U.S. government's official web portal to all federal, state and local government web resources and services.